This is the latest recevied weather packets stored in our database for station/object N7CW. If no packets are shown the sender has not sent any weather packets the latest 10 day(s).
| Time | Temp. | Humidity | Pressure | Rain* | Wind** | Luminosity | Snow |
|---|---|---|---|---|---|---|---|
| 1777416919 | 18.89° C | 19% | 1017.7 hPa | 0 mm | - | 479 W/m² | - |
| 1777416615 | 18.33° C | 20% | 1017.9 hPa | 0 mm | - | 496 W/m² | - |
| 1777416311 | 18.89° C | 19% | 1017.9 hPa | 0 mm | - | 509 W/m² | - |
| 1777416010 | 18.89° C | 20% | 1018 hPa | 0 mm | - | 523 W/m² | - |
| 1777415706 | 19.44° C | 20% | 1018 hPa | 0 mm | - | 538 W/m² | - |
| 1777415402 | 18.89° C | 20% | 1017.9 hPa | 0 mm | - | 551 W/m² | - |
| 1777415096 | 18.33° C | 21% | 1018.1 hPa | 0 mm | - | 564 W/m² | - |
| 1777414796 | 19.44° C | 20% | 1018.1 hPa | 0 mm | - | 578 W/m² | - |
| 1777414492 | 18.33° C | 21% | 1018.2 hPa | 0 mm | - | 592 W/m² | - |
| 1777414191 | 18.89° C | 21% | 1018.2 hPa | 0 mm | - | 605 W/m² | - |
| 1777413887 | 19.44° C | 20% | 1018 hPa | 0 mm | - | 617 W/m² | - |
| 1777413582 | 18.89° C | 22% | 1018.2 hPa | 0 mm | - | 629 W/m² | - |
| 1777413279 | 18.33° C | 22% | 1018.5 hPa | 0 mm | - | 642 W/m² | - |
| 1777412974 | 18.33° C | 21% | 1018.4 hPa | 0 mm | - | 655 W/m² | - |
| 1777412673 | 18.89° C | 22% | 1018.5 hPa | 0 mm | - | 668 W/m² | - |
| 1777412371 | 18.89° C | 23% | 1018.8 hPa | 0 mm | - | 680 W/m² | - |
| 1777412067 | 18.33° C | 21% | 1018.7 hPa | 0 mm | - | 689 W/m² | - |
| 1777411761 | 19.44° C | 22% | 1018.7 hPa | 0 mm | - | 697 W/m² | - |
| 1777411456 | 18.33° C | 21% | 1018.6 hPa | 0 mm | - | 712 W/m² | - |
| 1777411150 | 18.33° C | 23% | 1019 hPa | 0 mm | - | 756 W/m² | - |
| 1777410850 | 18.33° C | 23% | 1018.7 hPa | 0 mm | - | 333 W/m² | - |
| 1777410550 | 18.33° C | 22% | 1018.6 hPa | 0 mm | - | 784 W/m² | - |
| 1777410249 | 18.33° C | 21% | 1018.6 hPa | 0 mm | - | 653 W/m² | - |
| 1777409944 | 17.78° C | 22% | 1018.7 hPa | 0 mm | - | 704 W/m² | - |
| 1777409639 | 17.78° C | 22% | 1018.6 hPa | 0 mm | - | 784 W/m² | - |
* Rain latest hour (hover to see other rain measurements)
** Current wind speed in m/s (hover to see current wind gust speed)